Погода в Рычкове

Россия / Оренбургская область     53°59′12″N   52°31′27″E
темп.,
°C
ветер,
м/с
пор.,
м/с
влажн.,
%
обл.,
%
осадки,
мм/ч
давл.,
гПа
погр.,
м
28 января, чт
чт2823:00−8ююв61393100 0.0 1026338
02:00−8ю61391100 0.0 1026346
05:00−10ю5129298 0.0 1024301
08:00−10ююв6139399 0.0 1024290
11:00−10ююв6119399 0.0 1023323
14:00−8ююв61193100 0.0 1023339
17:00−8ююв61194100 0.0 1022327
20:00−8ююв51294100 0.0 1021283
29 января, пт
пт2923:00−10ююв51193100 0.0 1020231
02:00−9юв51091100 0.0 1020256
05:00−8юв51090100 0.0 1018265
08:00−8юв51192100 0.0 1017333
11:00−6ююв61290100 0.0 1016401
14:00−5ююв61092100 0.0 1015436
17:00−5ююв61091100 0.1 1014460
20:00−5юв51096100 0.3 1013418
30 января, сб
сб3023:00−5ююв51096100 0.6 1011411
02:00−4ююв4997100 0.7 1011384
05:00−4ю4997100 1.2 1010356
08:00−5ю3697100 0.4 1010145
11:00−5ю3698100 0.6 1010160
14:00−3ююз579899 0.0 1011328
17:00−3ююв5119699 0.0 1011389
20:00−3ю71493100 0.4 1010585
31 января, вс
вс3123:00−2ююз71494100 0.7 1011707
02:00−1юз61290100 0.1 1013611
05:00−4юз3698100 0.2 1015158
08:00−2ю4897100 0.3 1015307
11:00−2ю5897100 0.3 1015315
14:00−2ю5896100 0.1 1016341
17:00−4ююв599498 0.1 1016231
20:00−6юв6138920 0.0 1015278
1 февраля, пн
пн123:00−5юв9208347 0.0 1011495
02:00−4ю101695100 0.1 1008858
05:00−1ю111797100 3.4 1006971
08:00−1юз91495100 1.3 1006953
11:00−5юз8149395 1.4 1010705
14:00−4зюз81188100 0.2 1013813
17:00−5зюз71190100 0.3 1015753
20:00−7юз51194100 0.1 1019475